Zurück zum Katalog

KUIPER-00169

AktivKommunikationLEO
NORAD 65782·PAYLOAD·🇺🇸 United States

Gestartet Sep 25, 2025 von Cape Canaveral Space Force Station

Loading…

Nächste Überflüge (nächste 24 Stunden)

TLE

AktuellSource: CelesTrak SupGP

Epoche: Sep 14, 2026, 20:23 UTC

1 65782C 25217W   26257.84976852  .00000474  00000+0  62103-4 0  2573
2 65782  51.9000 276.6597 0000607  88.7413 116.0627 14.79917977    16

Verfolge KUIPER-00169 in Echtzeit mit AllMySat

Download on the App Store